Flag for U.S.A. Weather past 2 weeks in Decatur, Illinois, U.S.A.

Now
39 °F

Clear.


Feels Like: 29 °F
Forecast: 30 / 43 °F
Wind: 21 mph from South

Location: Decatur Airport

Current Time: Jan 29, 2015 at 1:05:39 AM

Latest Report: Jan 28, 2015 at 11:54 PM


Visibility: 10 mi

Pressure: 29.83 "Hg

Humidity: 67%

Dew point: 29 °F

Location of DecaturLocation

Historic Weather in Decatur — Graph

°F

Decatur temperature yesterday

Maximum temperature yesterday: 40 °F (at 1:54 PM)
Minimum temperature yesterday: 23 °F (at 2:54 AM)
Average temperature yesterday: 32 °F

Past Weeks' High & Low Weather Summary

 TemperatureHumidityPressure
High49 °F (Jan 17, 1:54 PM)100% (Jan 25, 4:54 PM)30.48 "Hg (Jan 25, 4:54 PM)
Low4 °F (Jan 14, 1:54 AM)54% (Jan 18, 12:54 PM)29.61 "Hg (Jan 25, 4:54 AM)
Average33 °F81%30.06 "Hg
* Reported Jan 13 11:54 PM — Jan 28 11:54 PM, Decatur, Weather by CustomWeather, © 2014

Note: Actual official high and low records may vary slightly from our data, if they occured in-between our weather recording intervals... More about our weather records

Advertising

Decatur weather history for previous 24 hours

 ConditionsComfort  
Time TempWeatherWind HumidityBarometerVisibility
11:54 PM
Jan 28
39 °FClear.21 mph67%29.83 "Hg10 mi
10:54 PM39 °FPartly cloudy.17 mph67%29.88 "Hg10 mi
9:54 PM38 °FOvercast.16 mph68%29.93 "Hg10 mi
8:54 PM37 °FClear.22 mph67%29.92 "Hg10 mi
7:54 PM37 °FClear.16 mph67%29.95 "Hg10 mi
6:54 PM37 °FClear.20 mph70%29.98 "Hg10 mi
5:54 PM36 °FClear.13 mph73%30.02 "Hg10 mi
4:54 PM37 °FSunny.16 mph73%30.04 "Hg10 mi
3:54 PM39 °FSunny.16 mph70%30.07 "Hg10 mi
2:54 PM40 °FSunny.22 mph65%30.08 "Hg10 mi
1:54 PM40 °FSunny.20 mph65%30.12 "Hg10 mi
12:54 PM39 °FSunny.18 mph65%30.16 "Hg9 mi
11:54 AM36 °FSunny.18 mph67%30.22 "Hg9 mi
10:54 AM34 °FSunny.16 mph73%30.26 "Hg8 mi
9:54 AM31 °FSunny.15 mph76%30.29 "Hg8 mi
8:54 AM28 °FSunny.14 mph72%30.29 "Hg9 mi
7:54 AM25 °FSunny.10 mph75%30.30 "Hg8 mi
6:54 AM23 °FClear.10 mph78%30.30 "Hg10 mi
5:54 AM23 °FClear.6 mph78%30.30 "Hg9 mi
4:54 AM23 °FClear.8 mph85%30.28 "Hg8 mi
3:54 AM23 °FClear.7 mph85%30.27 "Hg8 mi
2:54 AM23 °FClear.5 mph85%30.29 "Hg8 mi
1:54 AM24 °FClear.7 mph84%30.28 "Hg8 mi
Weather by CustomWeather, © 2014

See weather overviewHow to use our weather pages